• In Hungary
  • List of Countries
  • For 7 days
  • Water Temperature
  • Satellite Maps
  • Weather Map
  • News
  • Weather Widgets
  • user-avatar
    Login

    Hourly Weather Wlora

    Today, 19 August, Saturday

    Time Temperature Precipitation Wind Pressure Humidity
    00:00 +27°C° 0 mm 2 mps 761 mmHg 45%
    01:00 +27°C° 0 mm 2 mps 761 mmHg 44%
    02:00 +27°C° 0 mm 2 mps 761 mmHg 45%
    03:00 +27°C° 0 mm 2 mps 761 mmHg 45%
    04:00 +26°C° 0 mm 2 mps 761 mmHg 46%
    05:00 +28°C° 0 mm 2 mps 761 mmHg 44%
    06:00 +29°C° 0 mm 1 mps 761 mmHg 41%
    07:00 +31°C° 0 mm 1 mps 761 mmHg 39%
    08:00 +32°C° 0 mm 1 mps 761 mmHg 36%
    09:00 +34°C° 0 mm 1 mps 761 mmHg 32%
    10:00 +36°C° 0 mm 1 mps 761 mmHg 29%
    11:00 +37°C° 0 mm 2 mps 761 mmHg 28%
    12:00 +37°C° 0 mm 2 mps 761 mmHg 27%
    13:00 +38°C° 0 mm 3 mps 760 mmHg 27%
    14:00 +37°C° 0 mm 3 mps 760 mmHg 28%
    15:00 +37°C° 0 mm 3 mps 760 mmHg 30%
    16:00 +36°C° 0 mm 3 mps 760 mmHg 31%
    17:00 +34°C° 0 mm 2 mps 760 mmHg 35%
    18:00 +32°C° 0 mm 2 mps 760 mmHg 40%
    19:00 +30°C° 0 mm 1 mps 760 mmHg 44%
    20:00 +29°C° 0 mm 2 mps 760 mmHg 44%
    21:00 +29°C° 0 mm 2 mps 760 mmHg 45%
    22:00 +28°C° 0 mm 2 mps 761 mmHg 46%
    23:00 +28°C° 0 mm 1 mps 760 mmHg 46%

    Tomorrow, 20 August, Sunday

    Time Temperature Precipitation Wind Pressure Humidity
    00:00 +27°C° 0 mm 1 mps 760 mmHg 46%
    01:00 +27°C° 0 mm 1 mps 760 mmHg 47%
    02:00 +27°C° 0 mm 1 mps 760 mmHg 47%
    03:00 +26°C° 0 mm 1 mps 760 mmHg 48%
    04:00 +26°C° 0 mm 1 mps 759 mmHg 49%
    05:00 +28°C° 0 mm 1 mps 759 mmHg 46%
    06:00 +29°C° 0 mm 1 mps 759 mmHg 43%
    07:00 +30°C° 0 mm 2 mps 759 mmHg 40%
    08:00 +32°C° 0 mm 2 mps 759 mmHg 35%
    09:00 +35°C° 0 mm 2 mps 759 mmHg 30%
    10:00 +37°C° 0 mm 2 mps 759 mmHg 25%
    11:00 +37°C° 0 mm 3 mps 759 mmHg 24%
    12:00 +38°C° 0 mm 3 mps 759 mmHg 23%
    13:00 +38°C° 0 mm 4 mps 758 mmHg 22%
    14:00 +38°C° 0 mm 4 mps 758 mmHg 24%
    15:00 +37°C° 0 mm 4 mps 758 mmHg 25%
    16:00 +36°C° 0 mm 4 mps 757 mmHg 27%
    17:00 +34°C° 0 mm 3 mps 758 mmHg 33%
    18:00 +31°C° 0 mm 2 mps 758 mmHg 39%
    19:00 +29°C° 0 mm 2 mps 758 mmHg 45%
    20:00 +28°C° 0 mm 2 mps 758 mmHg 46%
    21:00 +28°C° 0 mm 1 mps 758 mmHg 47%
    22:00 +27°C° 0 mm 1 mps 759 mmHg 48%
    23:00 +27°C° 0 mm 2 mps 758 mmHg 49%

    Day after tomorrow, 21 August, Monday

    Time Temperature Precipitation Wind Pressure Humidity
    00:00 +26°C° 0 mm 2 mps 758 mmHg 50%
    01:00 +26°C° 0 mm 3 mps 758 mmHg 50%
    02:00 +25°C° 0.1 mm 3 mps 758 mmHg 50%
    03:00 +25°C° 0.1 mm 3 mps 758 mmHg 51%
    04:00 +25°C° 0.1 mm 4 mps 758 mmHg 51%
    05:00 +26°C° 0.1 mm 3 mps 758 mmHg 48%
    06:00 +28°C° 0.1 mm 3 mps 758 mmHg 46%
    07:00 +29°C° 0.1 mm 3 mps 758 mmHg 43%
    08:00 +30°C° 0 mm 3 mps 758 mmHg 40%
    09:00 +32°C° 0 mm 4 mps 758 mmHg 37%
    10:00 +34°C° 0 mm 4 mps 758 mmHg 35%
    11:00 +34°C° 0 mm 5 mps 758 mmHg 35%
    12:00 +35°C° 0 mm 5 mps 758 mmHg 35%
    13:00 +35°C° 0 mm 6 mps 758 mmHg 35%
    14:00 +35°C° 0 mm 6 mps 757 mmHg 37%
    15:00 +34°C° 0 mm 7 mps 757 mmHg 40%
    16:00 +34°C° 0 mm 7 mps 757 mmHg 42%
    17:00 +32°C° 0 mm 7 mps 757 mmHg 49%
    18:00 +29°C° 0 mm 7 mps 758 mmHg 57%
    19:00 +27°C° 0 mm 7 mps 758 mmHg 64%
    20:00 +26°C° 0 mm 7 mps 758 mmHg 68%
    21:00 +26°C° 0 mm 6 mps 759 mmHg 72%
    22:00 +24°C° 0 mm 6 mps 759 mmHg 75%
    23:00 +24°C° 0 mm 6 mps 759 mmHg 74%

    22 August, Tuesday

    Time Temperature Precipitation Wind Pressure Humidity
    00:00 +23°C° 0 mm 5 mps 759 mmHg 72%
    01:00 +23°C° 0 mm 5 mps 759 mmHg 70%
    02:00 +23°C° 0 mm 5 mps 759 mmHg 67%
    03:00 +23°C° 0 mm 5 mps 759 mmHg 65%
    04:00 +22°C° 0 mm 5 mps 759 mmHg 62%
    05:00 +25°C° 0 mm 5 mps 759 mmHg 56%
    06:00 +26°C° 0 mm 5 mps 759 mmHg 51%
    07:00 +27°C° 0 mm 5 mps 760 mmHg 45%
    08:00 +29°C° 0 mm 6 mps 760 mmHg 41%
    09:00 +30°C° 0 mm 6 mps 760 mmHg 37%
    10:00 +33°C° 0 mm 6 mps 760 mmHg 33%
    11:00 +34°C° 0 mm 7 mps 760 mmHg 31%
    12:00 +34°C° 0 mm 8 mps 760 mmHg 28%
    13:00 +35°C° 0 mm 9 mps 759 mmHg 26%
    14:00 +34°C° 0 mm 9 mps 759 mmHg 25%
    15:00 +34°C° 0 mm 9 mps 759 mmHg 25%
    16:00 +33°C° 0 mm 9 mps 759 mmHg 24%
    17:00 +31°C° 0 mm 9 mps 759 mmHg 30%
    18:00 +27°C° 0 mm 8 mps 759 mmHg 35%
    19:00 +24°C° 0 mm 8 mps 759 mmHg 41%
    20:00 +23°C° 0 mm 7 mps 760 mmHg 45%
    21:00 +22°C° 0 mm 7 mps 760 mmHg 48%
    22:00 +21°C° 0 mm 6 mps 760 mmHg 52%
    23:00 +21°C° 0 mm 6 mps 760 mmHg 50%

    23 August, Wednesday

    Time Temperature Precipitation Wind Pressure Humidity
    00:00 +21°C° 0 mm 6 mps 760 mmHg 49%
    01:00 +21°C° 0 mm 5 mps 760 mmHg 48%
    02:00 +21°C° 0 mm 5 mps 760 mmHg 45%
    03:00 +21°C° 0 mm 5 mps 760 mmHg 43%
    04:00 +20°C° 0 mm 5 mps 760 mmHg 41%
    05:00 +22°C° 0 mm 5 mps 761 mmHg 38%
    06:00 +23°C° 0 mm 5 mps 761 mmHg 36%
    07:00 +25°C° 0 mm 5 mps 761 mmHg 33%
    08:00 +28°C° 0 mm 4 mps 761 mmHg 30%
    09:00 +30°C° 0 mm 4 mps 761 mmHg 27%
    10:00 +33°C° 0 mm 4 mps 762 mmHg 24%
    11:00 +33°C° 0 mm 5 mps 761 mmHg 23%
    12:00 +34°C° 0 mm 6 mps 761 mmHg 22%
    13:00 +35°C° 0 mm 6 mps 761 mmHg 21%
    14:00 +34°C° 0 mm 7 mps 761 mmHg 23%
    15:00 +34°C° 0 mm 7 mps 761 mmHg 24%
    16:00 +33°C° 0 mm 7 mps 761 mmHg 26%
    17:00 +30°C° 0 mm 6 mps 761 mmHg 31%
    18:00 +28°C° 0 mm 6 mps 761 mmHg 36%
    19:00 +25°C° 0 mm 5 mps 761 mmHg 41%
    20:00 +25°C° 0 mm 5 mps 762 mmHg 41%
    21:00 +23°C° 0 mm 4 mps 762 mmHg 42%
    22:00 +23°C° 0 mm 4 mps 762 mmHg 42%
    23:00 +23°C° 0 mm 4 mps 762 mmHg 41%

    24 August, Thursday

    Time Temperature Precipitation Wind Pressure Humidity
    00:00 +24°C° 0 mm 3 mps 762 mmHg 39%
    01:00 +22°C° 0 mm 3 mps 762 mmHg 38%
    02:00 +22°C° 0 mm 3 mps 762 mmHg 38%
    03:00 +22°C° 0 mm 3 mps 762 mmHg 38%
    04:00 +22°C° 0 mm 3 mps 762 mmHg 37%
    05:00 +24°C° 0 mm 3 mps 763 mmHg 36%
    06:00 +26°C° 0 mm 3 mps 763 mmHg 34%
    07:00 +27°C° 0 mm 3 mps 763 mmHg 32%
    08:00 +29°C° 0 mm 2 mps 763 mmHg 30%
    09:00 +31°C° 0 mm 2 mps 763 mmHg 28%
    10:00 +34°C° 0 mm 2 mps 763 mmHg 25%
    11:00 +35°C° 0 mm 3 mps 763 mmHg 24%
    12:00 +35°C° 0 mm 3 mps 763 mmHg 23%
    13:00 +36°C° 0 mm 4 mps 763 mmHg 22%
    14:00 +35°C° 0 mm 4 mps 763 mmHg 23%
    15:00 +35°C° 0 mm 5 mps 762 mmHg 25%
    16:00 +34°C° 0 mm 5 mps 762 mmHg 26%
    17:00 +32°C° 0 mm 4 mps 762 mmHg 31%
    18:00 +29°C° 0 mm 4 mps 763 mmHg 35%
    19:00 +27°C° 0 mm 4 mps 763 mmHg 40%
    20:00 +26°C° 0 mm 4 mps 763 mmHg 40%
    21:00 +26°C° 0 mm 3 mps 763 mmHg 39%
    22:00 +25°C° 0 mm 3 mps 763 mmHg 38%
    23:00 +25°C° 0 mm 3 mps 763 mmHg 38%
    Show more